period_start,C,m1,H,J0,J1,J2,J3,J4,J5,JA,JB,JC,JD,JJ,JK,JN,#
2018-08-18 00:00:21,-0.01,8.98,0.00,27.35,30.33,32.89,13.76,54.58,1013.70,2009.32,1266.24,1576.60,1713.00,600.36,586.12,35.21,0000 0000 0000 0000 000000
2018-08-18 00:05:22,0.02,8.99,0.00,27.38,30.37,32.94,13.67,54.54,1013.72,2009.03,1266.01,1576.09,1712.94,599.46,585.15,35.26,0000 0000 0000 0000 000000
2018-08-18 00:10:23,0.02,8.99,0.00,27.40,30.41,32.99,13.75,54.59,1013.87,2009.00,1265.99,1576.00,1712.54,600.01,585.70,35.31,0000 0000 0000 0000 000000
2018-08-18 00:15:24,0.02,8.99,0.00,27.42,30.45,33.07,13.78,54.65,1014.09,2009.00,1265.91,1576.00,1712.05,600.07,585.88,35.36,0000 0000 0000 0000 000000
2018-08-18 00:20:25,0.06,8.99,0.00,27.43,30.49,33.09,13.79,54.55,1014.17,2008.99,1265.29,1575.93,1712.00,600.04,585.85,35.41,0000 0000 0000 0000 000000
2018-08-18 00:25:27,0.04,8.99,0.00,27.44,30.53,33.16,13.76,54.66,1014.17,2008.95,1265.06,1575.53,1711.99,599.76,585.52,35.46,0000 0000 0000 0000 000000
2018-08-18 00:30:28,-0.02,8.99,0.00,27.45,30.57,33.17,13.82,54.65,1014.17,2008.57,1265.00,1575.06,1711.76,600.02,585.84,35.51,0000 0000 0000 0000 000000
2018-08-18 00:35:29,-0.04,8.99,0.00,27.46,30.61,33.21,13.75,54.61,1014.18,2008.12,1265.00,1575.00,1711.13,600.24,585.88,35.56,0000 0000 0000 0000 000000
2018-08-18 00:40:30,-0.00,8.99,0.00,27.46,30.64,33.24,13.79,54.71,1014.20,2008.02,1264.96,1575.00,1711.02,599.83,585.57,35.61,0000 0000 0000 0000 000000
2018-08-18 00:45:32,0.04,8.99,0.00,27.47,30.67,33.28,13.70,54.54,1014.19,2008.00,1264.58,1574.95,1711.00,599.84,585.59,35.66,0000 0000 0000 0000 000000
2018-08-18 00:50:33,0.07,9.00,0.00,27.47,30.71,33.32,13.79,54.49,1014.21,2008.00,1264.14,1574.45,1710.93,600.27,586.07,35.72,0000 0000 0000 0000 000000
2018-08-18 00:55:34,0.04,9.00,0.00,27.47,30.74,33.33,13.74,54.53,1014.27,2007.99,1264.02,1574.07,1710.62,599.77,585.58,35.77,0000 0000 0000 0000 000000
2018-08-18 01:00:35,0.01,9.00,0.00,27.48,30.76,33.37,13.69,54.50,1014.47,2007.94,1264.00,1574.01,1710.09,599.85,585.74,35.82,0000 0000 0000 0000 000000
2018-08-18 01:05:37,-0.06,9.00,0.00,27.48,30.79,33.40,13.73,54.52,1014.64,2007.60,1264.00,1574.00,1710.00,599.71,585.88,35.87,0000 0000 0000 0000 000000
2018-08-18 01:10:37,-0.05,8.99,0.00,27.49,30.81,33.42,13.78,54.59,1014.66,2007.25,1264.00,1574.00,1709.99,599.98,586.03,35.92,0000 0000 0000 0000 000000
2018-08-18 01:15:39,-0.01,8.99,0.00,27.49,30.84,33.44,13.76,54.58,1014.66,2007.05,1263.99,1573.97,1709.98,599.93,585.83,35.97,0000 0000 0000 0000 000000
2018-08-18 01:20:40,0.01,8.99,0.00,27.50,30.86,33.48,13.80,54.58,1014.66,2007.01,1263.97,1573.85,1709.93,600.43,586.46,36.02,0000 0000 0000 0000 000000
2018-08-18 01:25:42,0.07,9.00,0.00,27.50,30.89,33.51,13.78,54.71,1014.67,2007.00,1263.73,1573.42,1709.75,599.91,585.95,36.07,0000 0000 0000 0000 000000
2018-08-18 01:30:43,0.04,9.00,0.00,27.50,30.90,33.52,13.81,54.63,1014.69,2007.00,1263.52,1573.12,1709.30,599.95,585.96,36.12,0000 0000 0000 0000 000000
2018-08-18 01:35:44,0.03,9.00,0.00,27.48,30.92,33.52,13.69,54.59,1014.77,2006.99,1263.27,1573.03,1709.08,599.58,585.68,36.17,0000 0000 0000 0000 000000
2018-08-18 01:40:45,-0.00,9.00,0.00,27.47,30.95,33.55,13.79,54.59,1015.03,2006.93,1263.09,1573.00,1709.02,599.78,586.03,36.22,0000 0000 0000 0000 000000
2018-08-18 01:45:47,-0.02,9.00,0.00,27.47,30.96,33.59,13.78,54.61,1015.13,2006.73,1263.03,1573.00,1709.00,600.03,586.42,36.27,0000 0000 0000 0000 000000
2018-08-18 01:50:48,0.01,9.00,0.00,27.47,30.97,33.62,13.77,54.67,1015.15,2006.71,1263.01,1573.00,1709.00,600.00,586.47,36.32,0000 0000 0000 0000 000000
2018-08-18 01:55:49,-0.05,9.00,0.00,27.48,30.99,33.66,13.82,54.72,1015.15,2006.39,1263.01,1572.99,1709.00,599.93,586.32,36.37,0000 0000 0000 0000 000000
2018-08-18 02:00:51,-0.01,9.00,0.00,27.48,31.00,33.69,13.85,54.80,1015.16,2006.27,1263.00,1572.99,1709.00,599.99,586.39,36.42,0000 0000 0000 0000 000000
2018-08-18 02:05:52,-0.02,9.00,0.00,27.47,31.01,33.70,13.85,54.76,1015.18,2006.17,1263.00,1572.98,1708.99,600.32,586.47,36.47,0000 0000 0000 0000 000000
2018-08-18 02:10:53,-0.01,9.00,0.00,27.47,31.02,33.70,13.86,54.80,1015.31,2006.04,1263.00,1572.98,1708.98,600.16,586.57,36.52,0000 0000 0000 0000 000000
2018-08-18 02:15:55,0.00,9.00,0.00,27.47,31.02,33.75,13.76,54.71,1015.48,2006.01,1263.00,1572.97,1708.97,599.87,586.27,36.57,0000 0000 0000 0000 000000
2018-08-18 02:20:56,0.00,9.00,0.00,27.46,31.04,33.75,13.86,54.90,1015.63,2006.00,1263.00,1572.91,1708.89,600.18,586.81,36.62,0000 0000 0000 0000 000000
2018-08-18 02:25:57,0.00,9.00,0.00,27.45,31.05,33.79,13.79,54.70,1015.64,2006.00,1263.00,1572.89,1708.86,599.91,586.63,36.67,0000 0000 0000 0000 000000
2018-08-18 02:30:59,0.01,9.00,0.00,27.46,31.05,33.83,13.83,54.68,1015.64,2006.00,1263.00,1572.86,1708.73,599.71,586.36,36.73,0000 0000 0000 0000 000000
2018-08-18 02:36:00,0.03,9.00,0.00,27.45,31.05,33.85,13.79,54.77,1015.65,2006.00,1263.00,1572.63,1708.44,599.96,586.45,36.78,0000 0000 0000 0000 000000
2018-08-18 02:41:01,0.04,9.00,0.00,27.45,31.07,33.85,13.75,54.83,1015.66,2006.00,1263.00,1572.26,1708.12,599.60,586.22,36.83,0000 0000 0000 0000 000000
2018-08-18 02:46:03,-0.00,9.00,0.00,27.45,31.07,33.87,13.78,54.79,1015.68,2006.00,1263.00,1572.21,1708.15,599.61,586.23,36.88,0000 0000 0000 0000 000000
2018-08-18 02:51:04,0.01,9.00,0.00,27.46,31.07,33.88,13.81,54.69,1015.95,2006.00,1262.99,1572.11,1708.05,599.96,586.77,36.93,0000 0000 0000 0000 000000
2018-08-18 02:56:05,0.00,9.00,0.00,27.45,31.07,33.91,13.85,54.77,1016.07,2006.00,1262.99,1572.07,1708.01,600.21,587.05,36.98,0000 0000 0000 0000 000000
2018-08-18 03:01:06,-0.00,9.00,0.00,27.45,31.07,33.91,13.82,54.75,1016.11,2005.99,1262.99,1572.02,1708.01,600.11,586.93,37.03,0000 0000 0000 0000 000000
2018-08-18 03:06:08,0.00,9.00,0.00,27.45,31.09,33.91,13.87,54.74,1016.13,2005.98,1262.99,1572.01,1708.01,600.13,587.14,37.08,0000 0000 0000 0000 000000
2018-08-18 03:11:09,0.00,9.00,0.00,27.43,31.10,33.91,13.85,54.73,1016.13,2005.98,1262.99,1572.01,1708.00,599.81,586.81,37.13,0000 0000 0000 0000 000000
2018-08-18 03:16:10,0.00,9.00,0.00,27.44,31.10,33.93,13.78,54.71,1016.13,2005.99,1262.99,1572.02,1708.00,600.01,587.01,37.18,0000 0000 0000 0000 000000
2018-08-18 03:21:12,0.00,9.00,0.00,27.44,31.10,33.93,13.84,54.74,1016.13,2005.99,1262.99,1572.01,1708.00,599.71,586.67,37.23,0000 0000 0000 0000 000000
2018-08-18 03:26:13,0.00,9.00,0.00,27.43,31.10,33.97,13.85,54.77,1016.13,2005.98,1262.98,1572.00,1708.00,600.32,587.28,37.28,0000 0000 0000 0000 000000
2018-08-18 03:31:14,-0.00,9.00,0.00,27.42,31.10,33.92,13.85,54.62,1016.15,2005.98,1262.99,1572.00,1708.00,600.15,587.10,37.33,0000 0000 0000 0000 000000
2018-08-18 03:36:16,-0.00,9.00,0.00,27.42,31.10,33.95,13.83,54.78,1016.16,2005.97,1262.97,1572.00,1708.00,599.70,586.75,37.38,0000 0000 0000 0000 000000
2018-08-18 03:41:17,0.00,9.00,0.00,27.44,31.10,33.96,13.81,54.84,1016.18,2005.97,1262.95,1572.00,1707.99,600.08,587.02,37.43,0000 0000 0000 0000 000000
2018-08-18 03:46:19,-0.00,9.00,0.00,27.44,31.10,33.96,13.78,54.84,1016.23,2005.92,1262.86,1572.00,1707.98,599.73,586.76,37.48,0000 0000 0000 0000 000000
2018-08-18 03:51:20,0.00,9.00,0.00,27.43,31.10,33.95,13.87,54.71,1016.45,2005.90,1262.73,1571.99,1707.95,600.01,587.03,37.53,0000 0000 0000 0000 000000
2018-08-18 03:56:21,0.01,9.00,0.00,27.43,31.10,33.97,13.86,54.81,1016.60,2005.91,1262.61,1571.99,1707.98,600.17,587.33,37.58,0000 0000 0000 0000 000000
2018-08-18 04:01:22,0.02,9.00,0.00,27.43,31.11,33.96,13.86,54.84,1016.62,2005.89,1262.42,1571.99,1707.96,600.04,587.29,37.64,0000 0000 0000 0000 000000
2018-08-18 04:06:24,0.00,9.00,0.00,27.44,31.12,33.96,13.90,54.72,1016.62,2005.85,1262.22,1571.99,1707.89,600.24,587.47,37.69,0000 0000 0000 0000 000000
2018-08-18 04:11:25,-0.01,9.00,0.00,27.44,31.12,33.97,13.89,54.78,1016.62,2005.79,1262.11,1571.98,1707.81,599.86,587.30,37.74,0000 0000 0000 0000 000000
2018-08-18 04:16:27,0.01,9.00,0.00,27.45,31.12,33.96,13.83,54.71,1016.63,2005.79,1262.08,1571.96,1707.71,600.05,587.22,37.79,0000 0000 0000 0000 000000
2018-08-18 04:21:28,-0.03,9.00,0.00,27.45,31.12,33.94,13.81,54.77,1016.66,2005.47,1262.05,1571.93,1707.33,599.77,587.08,37.84,0000 0000 0000 0000 000000
2018-08-18 04:26:29,-0.00,9.00,0.00,27.45,31.12,33.98,13.84,54.68,1016.79,2005.39,1262.01,1571.90,1707.13,599.91,587.30,37.89,0000 0000 0000 0000 000000
2018-08-18 04:31:31,0.01,9.00,0.00,27.45,31.12,33.96,13.83,54.83,1017.01,2005.41,1262.00,1571.76,1707.06,600.12,587.51,37.94,0000 0000 0000 0000 000000
2018-08-18 04:36:32,-0.01,9.00,0.00,27.45,31.12,33.98,13.90,54.74,1017.08,2005.25,1262.00,1571.67,1707.06,600.45,587.83,37.99,0000 0000 0000 0000 000000
2018-08-18 04:41:33,0.02,9.00,0.00,27.45,31.12,33.98,13.83,54.74,1017.09,2005.37,1262.00,1571.64,1707.04,599.99,587.45,38.04,0000 0000 0000 0000 000000
2018-08-18 04:46:34,0.01,9.00,0.00,27.45,31.13,33.96,13.85,54.78,1017.10,2005.30,1262.00,1571.36,1707.02,599.93,587.40,38.09,0000 0000 0000 0000 000000
2018-08-18 04:51:35,-0.02,9.00,0.00,27.46,31.13,33.97,13.82,54.74,1017.11,2005.27,1262.00,1571.42,1707.01,599.84,587.32,38.14,0000 0000 0000 0000 000000
2018-08-18 04:56:36,-0.00,9.00,0.00,27.47,31.14,33.98,13.78,54.76,1017.12,2005.15,1262.00,1571.16,1707.00,599.95,587.42,38.19,0000 0000 0000 0000 000000
2018-08-18 05:01:38,0.00,9.00,0.00,27.47,31.15,33.97,13.88,54.73,1017.12,2005.11,1262.00,1571.12,1707.00,600.06,587.62,38.24,0000 0000 0000 0000 000000
2018-08-18 05:06:39,0.03,9.00,0.00,27.47,31.15,33.96,13.90,54.73,1017.21,2005.20,1262.00,1571.19,1707.00,600.13,587.54,38.29,0000 0000 0000 0000 000000
2018-08-18 05:11:40,-0.02,9.00,0.00,27.47,31.15,33.97,13.84,54.64,1017.45,2005.17,1262.00,1571.14,1707.00,600.07,587.64,38.34,0000 0000 0000 0000 000000
2018-08-18 05:16:42,-0.00,9.00,0.00,27.47,31.15,33.97,13.79,54.61,1017.56,2005.10,1261.99,1571.13,1707.00,599.83,587.64,38.39,0000 0000 0000 0000 000000
2018-08-18 05:21:43,-0.00,9.00,0.00,27.48,31.15,33.97,13.84,54.57,1017.59,2005.04,1261.99,1571.05,1707.00,599.81,587.61,38.44,0000 0000 0000 0000 000000
2018-08-18 05:26:44,-0.00,9.00,0.00,27.48,31.15,33.97,13.82,54.57,1017.59,2005.04,1261.99,1571.03,1707.00,599.99,587.70,38.50,0000 0000 0000 0000 000000
2018-08-18 05:31:45,-0.00,9.00,0.00,27.49,31.15,34.01,13.78,54.63,1017.59,2005.03,1261.98,1571.03,1707.00,600.15,587.86,38.55,0000 0000 0000 0000 000000
2018-08-18 05:36:47,-0.00,9.00,0.00,27.50,31.17,33.98,13.92,54.63,1017.59,2005.01,1261.98,1571.01,1707.00,600.03,587.71,38.60,0000 0000 0000 0000 000000
2018-08-18 05:41:48,0.00,9.00,0.00,27.50,31.17,33.94,13.85,54.48,1017.61,2005.03,1261.99,1571.02,1707.00,600.25,587.94,38.65,0000 0000 0000 0000 000000
2018-08-18 05:46:49,0.00,9.00,0.00,27.51,31.17,33.99,13.81,54.56,1017.64,2005.01,1261.97,1571.01,1707.00,599.87,587.53,38.70,0000 0000 0000 0000 000000
2018-08-18 05:51:50,-0.00,9.00,0.00,27.52,31.17,34.00,13.85,54.48,1017.76,2005.01,1261.98,1571.02,1707.00,599.52,587.35,38.75,0000 0000 0000 0000 000000
2018-08-18 05:56:52,0.00,9.00,0.00,27.52,31.17,33.94,13.89,54.46,1018.03,2005.02,1261.98,1571.03,1707.00,600.31,588.11,38.80,0000 0000 0000 0000 000000
2018-08-18 06:01:53,-0.00,9.00,0.00,27.52,31.17,33.98,13.87,54.74,1018.08,2005.00,1261.97,1571.03,1707.00,600.05,587.95,38.85,0000 0000 0000 0000 000000
2018-08-18 06:06:54,0.00,9.00,0.00,27.52,31.18,34.00,13.84,54.74,1018.08,2005.01,1261.97,1571.02,1707.00,599.88,587.79,38.90,0000 0000 0000 0000 000000
2018-08-18 06:11:55,0.00,9.00,0.00,27.53,31.19,34.01,13.84,54.71,1018.08,2005.00,1261.95,1571.01,1706.99,599.96,587.85,38.95,0000 0000 0000 0000 000000
2018-08-18 06:16:57,-0.00,9.00,0.00,27.53,31.20,34.00,13.92,54.66,1018.09,2005.00,1261.96,1571.01,1706.99,600.03,587.95,39.00,0000 0000 0000 0000 000000
2018-08-18 06:21:58,0.00,9.00,0.00,27.54,31.20,33.99,13.80,54.52,1018.10,2005.00,1261.92,1571.01,1706.99,600.04,587.94,39.05,0000 0000 0000 0000 000000
2018-08-18 06:26:59,0.00,9.00,0.00,27.55,31.20,33.98,13.81,54.58,1018.15,2005.00,1261.93,1571.00,1706.99,600.01,587.85,39.10,0000 0000 0000 0000 000000
2018-08-18 06:32:00,0.00,9.00,0.00,27.55,31.20,34.01,13.93,54.58,1018.31,2005.00,1261.87,1571.00,1706.99,600.18,588.18,39.15,0000 0000 0000 0000 000000
2018-08-18 06:37:01,0.00,9.00,0.00,27.56,31.20,33.99,13.82,54.62,1018.52,2005.00,1261.87,1571.00,1706.99,599.90,587.98,39.20,0000 0000 0000 0000 000000
2018-08-18 06:42:02,0.01,9.00,0.00,27.57,31.20,34.00,13.87,54.55,1018.55,2005.00,1261.82,1571.00,1706.97,600.33,588.30,39.25,0000 0000 0000 0000 000000
2018-08-18 06:47:04,0.00,9.00,0.00,27.57,31.22,34.01,13.81,54.51,1018.57,2005.00,1261.81,1571.00,1706.98,600.14,588.23,39.30,0000 0000 0000 0000 000000
2018-08-18 06:52:05,-0.00,9.00,0.00,27.59,31.22,33.99,13.80,54.53,1018.57,2005.00,1261.83,1571.00,1706.97,599.76,587.98,39.35,0000 0000 0000 0000 000000
2018-08-18 06:57:06,0.01,9.01,0.00,27.58,31.22,34.02,13.82,54.54,1018.58,2005.00,1261.68,1571.00,1706.96,599.97,588.07,39.40,0000 0000 0000 0000 000000
2018-08-18 07:02:07,0.00,9.00,0.00,27.60,31.22,34.00,13.84,54.59,1018.58,2005.00,1261.73,1571.00,1706.96,599.71,587.74,39.45,0000 0000 0000 0000 000000
2018-08-18 07:07:09,0.01,9.01,0.00,27.60,31.22,34.03,13.84,54.52,1018.65,2005.00,1261.55,1571.00,1706.94,599.66,587.89,39.51,0000 0000 0000 0000 000000
2018-08-18 07:12:10,0.01,9.01,0.00,27.60,31.22,34.02,13.89,54.55,1018.89,2004.99,1261.48,1571.00,1706.93,600.22,588.46,39.56,0000 0000 0000 0000 000000
2018-08-18 07:17:11,0.00,9.01,0.00,27.60,31.24,34.03,13.83,54.50,1019.04,2004.98,1261.41,1571.00,1706.92,600.07,588.48,39.61,0000 0000 0000 0000 000000
2018-08-18 07:22:12,0.02,9.01,0.00,27.60,31.25,34.04,13.85,54.37,1019.06,2004.99,1261.25,1571.00,1706.80,600.04,588.41,39.66,0000 0000 0000 0000 000000
2018-08-18 07:27:14,0.01,9.01,0.00,27.61,31.25,34.05,13.85,54.40,1019.06,2004.97,1261.13,1571.00,1706.72,599.91,588.21,39.71,0000 0000 0000 0000 000000
2018-08-18 07:32:15,-0.01,9.01,0.00,27.61,31.25,34.01,13.86,54.48,1019.07,2004.97,1261.17,1571.00,1706.69,600.05,588.40,39.76,0000 0000 0000 0000 000000
2018-08-18 07:37:16,-0.00,9.01,0.00,27.62,31.25,34.04,13.86,54.48,1019.11,2004.98,1261.21,1571.00,1706.81,600.27,588.59,39.81,0000 0000 0000 0000 000000
2018-08-18 07:42:18,0.01,9.01,0.00,27.62,31.25,34.04,13.83,54.51,1019.25,2004.98,1261.08,1571.00,1706.74,599.87,588.34,39.86,0000 0000 0000 0000 000000
2018-08-18 07:47:19,0.00,9.01,0.00,27.62,31.25,34.05,13.95,54.49,1019.44,2004.95,1261.07,1571.00,1706.55,600.45,588.99,39.91,0000 0000 0000 0000 000000
2018-08-18 07:52:20,-0.01,9.01,0.00,27.62,31.25,34.05,13.89,54.48,1019.53,2004.98,1261.19,1571.00,1706.65,600.19,588.72,39.96,0000 0000 0000 0000 000000
2018-08-18 07:57:21,0.01,9.01,0.00,27.62,31.27,34.04,13.83,54.54,1019.55,2004.96,1261.13,1571.00,1706.45,599.94,588.47,40.01,0000 0000 0000 0000 000000
2018-08-18 08:02:22,0.01,9.01,0.00,27.62,31.27,34.05,13.84,54.49,1019.55,2004.90,1261.08,1571.00,1706.35,599.58,588.18,40.06,0000 0000 0000 0000 000000
2018-08-18 08:07:23,-0.00,9.01,0.00,27.62,31.27,34.05,13.86,54.52,1019.55,2004.88,1261.03,1571.00,1706.17,599.94,588.51,40.11,0000 0000 0000 0000 000000
2018-08-18 08:12:25,0.01,9.01,0.00,27.62,31.27,34.03,13.89,54.51,1019.56,2004.93,1261.06,1570.99,1706.18,600.09,588.63,40.16,0000 0000 0000 0000 000000
2018-08-18 08:17:26,-0.01,9.01,0.00,27.62,31.27,34.02,13.87,54.44,1019.57,2004.88,1261.06,1570.99,1706.22,600.31,588.77,40.21,0000 0000 0000 0000 000000
2018-08-18 08:22:27,-0.03,9.01,0.00,27.65,31.27,34.09,13.83,54.37,1019.63,2004.71,1261.06,1570.99,1706.08,600.07,588.64,40.26,0000 0000 0000 0000 000000
2018-08-18 08:27:29,-0.00,9.01,0.00,27.65,31.27,34.04,13.81,54.47,1019.76,2004.63,1261.08,1570.98,1706.06,599.88,588.60,40.31,0000 0000 0000 0000 000000
2018-08-18 08:32:30,-0.01,9.01,0.00,27.65,31.28,34.04,13.90,54.48,1019.80,2004.56,1261.06,1570.99,1706.03,600.25,588.82,40.36,0000 0000 0000 0000 000000
2018-08-18 08:37:31,0.01,9.01,0.00,27.65,31.29,34.03,13.79,54.49,1019.85,2004.50,1261.09,1570.99,1706.05,599.94,588.53,40.42,0000 0000 0000 0000 000000
2018-08-18 08:42:32,-0.03,9.01,0.00,27.66,31.30,34.05,13.86,54.34,1020.01,2004.37,1261.03,1570.98,1706.03,599.93,588.57,40.47,0000 0000 0000 0000 000000
2018-08-18 08:47:34,-0.03,9.00,0.00,27.67,31.30,34.06,13.78,54.55,1020.03,2004.15,1261.03,1570.98,1706.02,599.72,588.48,40.52,0000 0000 0000 0000 000000
2018-08-18 08:52:35,0.01,9.00,0.00,27.67,31.30,34.06,13.87,54.39,1020.03,2004.19,1261.02,1570.97,1706.03,600.17,588.80,40.57,0000 0000 0000 0000 000000
2018-08-18 08:57:36,-0.01,9.00,0.00,27.67,31.30,34.01,13.88,54.38,1020.04,2004.16,1261.02,1570.98,1706.01,599.67,588.46,40.62,0000 0000 0000 0000 000000
2018-08-18 09:02:37,-0.00,9.00,0.00,27.68,31.30,34.07,13.85,54.47,1020.05,2004.09,1261.01,1570.96,1706.02,600.18,588.92,40.67,0000 0000 0000 0000 000000
2018-08-18 09:07:38,0.01,9.00,0.00,27.70,31.31,34.05,13.80,54.41,1020.05,2004.08,1261.00,1570.97,1706.00,600.07,588.74,40.72,0000 0000 0000 0000 000000
2018-08-18 09:12:39,-0.00,9.00,0.00,27.70,31.32,34.07,13.84,54.42,1020.05,2004.06,1261.01,1570.96,1706.00,599.92,588.71,40.77,0000 0000 0000 0000 000000
2018-08-18 09:17:41,-0.00,9.00,0.00,27.70,31.32,34.09,13.86,54.40,1020.09,2004.05,1261.00,1570.97,1706.00,600.04,588.98,40.82,0000 0000 0000 0000 000000
2018-08-18 09:22:42,0.00,9.00,0.00,27.68,31.32,34.07,13.90,54.36,1020.23,2004.08,1261.00,1570.97,1706.00,600.24,588.97,40.87,0000 0000 0000 0000 000000
2018-08-18 09:27:43,0.01,9.00,0.00,27.69,31.32,34.12,13.88,54.54,1020.44,2004.11,1261.00,1570.96,1706.01,599.98,588.96,40.92,0000 0000 0000 0000 000000
2018-08-18 09:32:45,-0.00,9.00,0.00,27.69,31.32,34.12,13.90,54.38,1020.49,2004.08,1261.00,1570.94,1706.00,600.26,589.20,40.97,0000 0000 0000 0000 000000
2018-08-18 09:37:46,-0.00,9.00,0.00,27.69,31.32,34.15,13.88,54.42,1020.49,2004.08,1261.00,1570.90,1706.00,599.82,588.88,41.02,0000 0000 0000 0000 000000
2018-08-18 09:42:47,0.01,9.00,0.00,27.68,31.32,34.14,13.93,54.45,1020.47,2004.09,1261.00,1570.90,1706.00,600.04,588.97,41.07,0000 0000 0000 0000 000000
2018-08-18 09:47:48,0.00,9.00,0.00,27.67,31.32,34.14,13.81,54.38,1020.51,2004.04,1261.00,1570.84,1706.00,599.90,588.94,41.12,0000 0000 0000 0000 000000
2018-08-18 09:52:50,0.01,9.00,0.00,27.69,31.33,34.10,13.90,54.38,1020.52,2004.01,1261.00,1570.70,1706.00,600.17,589.17,41.17,0000 0000 0000 0000 000000
2018-08-18 09:57:51,-0.01,9.00,0.00,27.69,31.33,34.13,13.88,54.44,1020.52,2004.01,1261.00,1570.57,1706.00,600.29,589.34,41.22,0000 0000 0000 0000 000000
2018-08-18 10:02:52,0.01,9.00,0.00,27.69,31.34,34.09,13.84,54.52,1020.52,2004.01,1261.00,1570.54,1705.99,599.92,588.83,41.27,0000 0000 0000 0000 000000
2018-08-18 10:07:53,-0.00,9.00,0.00,27.69,31.35,34.08,13.88,54.41,1020.54,2004.00,1261.00,1570.46,1705.99,599.94,589.02,41.32,0000 0000 0000 0000 000000
2018-08-18 10:12:55,0.01,9.00,0.00,27.70,31.35,34.04,13.80,54.35,1020.55,2004.00,1261.00,1570.38,1705.99,599.83,588.81,41.37,0000 0000 0000 0000 000000
2018-08-18 10:17:56,0.00,9.01,0.00,27.71,31.35,33.96,13.88,54.41,1020.58,2004.00,1260.98,1570.31,1705.98,599.84,588.99,41.43,0000 0000 0000 0000 000000
2018-08-18 10:22:57,0.01,9.01,0.00,27.73,31.35,33.89,13.82,54.38,1020.75,2004.00,1260.98,1570.18,1705.97,599.78,588.92,41.48,0000 0000 0000 0000 000000
2018-08-18 10:27:59,0.01,9.01,0.00,27.76,31.35,33.86,13.81,54.43,1020.94,2004.00,1260.94,1570.07,1705.98,599.83,588.97,41.53,0000 0000 0000 0000 000000
2018-08-18 10:33:00,0.00,9.01,0.00,27.81,31.35,33.84,13.83,54.39,1021.00,2004.00,1260.95,1570.07,1705.98,600.04,589.21,41.58,0000 0000 0000 0000 000000
2018-08-18 10:38:01,-0.00,9.01,0.00,27.86,31.37,33.82,13.85,54.34,1021.01,2004.00,1260.96,1570.02,1705.95,600.02,588.78,41.63,0000 0000 0000 0000 000000
2018-08-18 10:43:02,0.00,9.01,0.00,27.92,31.37,33.87,13.81,54.38,1021.01,2004.00,1260.96,1570.02,1705.92,599.91,588.68,41.68,0000 0000 0000 0000 000000
2018-08-18 10:48:03,0.00,9.01,0.00,28.00,31.37,33.90,13.82,54.31,1021.01,2003.99,1260.95,1570.02,1705.89,599.97,588.64,41.73,0000 0000 0000 0000 000000
2018-08-18 10:53:05,-0.00,9.01,0.00,28.08,31.40,33.93,13.82,54.27,1021.01,2003.99,1260.95,1570.03,1705.85,599.95,588.47,41.78,0000 0000 0000 0000 000000
2018-08-18 10:58:06,0.01,9.01,0.00,28.20,31.41,33.96,13.83,54.21,1021.02,2003.97,1260.88,1570.01,1705.59,599.85,588.16,41.83,0000 0000 0000 0000 000000
2018-08-18 11:03:07,0.01,9.01,0.00,28.37,31.42,33.98,13.83,54.15,1021.03,2003.94,1260.87,1570.00,1705.28,600.13,588.10,41.88,0000 0000 0000 0000 000000
2018-08-18 11:08:09,-0.02,9.01,0.00,28.54,31.45,34.01,13.79,54.03,1021.03,2003.69,1260.65,1570.00,1705.10,599.84,587.47,41.93,0000 0000 0000 0000 000000
2018-08-18 11:13:10,-0.02,9.01,0.00,28.70,31.46,34.00,13.71,54.02,1021.04,2003.49,1260.45,1570.00,1705.04,599.89,587.22,41.98,0000 0000 0000 0000 000000
2018-08-18 11:18:11,-0.02,9.01,0.00,28.82,31.48,34.03,13.77,53.98,1021.05,2003.15,1260.22,1570.00,1705.01,599.82,586.89,42.03,0000 0000 0000 0000 000000
2018-08-18 11:23:13,0.00,9.01,0.00,28.89,31.50,34.06,13.74,54.01,1021.07,2003.11,1260.16,1569.99,1705.01,600.15,587.12,42.08,0000 0000 0000 0000 000000
2018-08-18 11:28:14,-0.00,9.01,0.00,28.89,31.52,34.10,13.74,53.97,1021.29,2003.03,1260.05,1569.99,1705.00,599.89,586.96,42.13,0000 0000 0000 0000 000000
2018-08-18 11:33:16,0.00,9.01,0.00,28.75,31.53,34.16,13.81,54.13,1021.49,2003.02,1260.04,1569.98,1705.00,600.31,587.70,42.18,0000 0000 0000 0000 000000
2018-08-18 11:38:17,0.00,9.01,0.00,28.56,31.55,34.20,13.80,54.33,1021.50,2003.00,1260.01,1569.95,1705.00,600.21,588.02,42.23,0000 0000 0000 0000 000000
2018-08-18 11:43:18,0.00,9.01,0.00,28.38,31.55,34.26,13.85,54.41,1021.50,2003.00,1260.00,1569.93,1705.00,599.93,588.19,42.28,0000 0000 0000 0000 000000
2018-08-18 11:48:19,0.00,9.01,0.00,28.22,31.55,34.39,13.80,54.33,1021.50,2003.00,1260.00,1569.91,1705.00,600.17,588.65,42.33,0000 0000 0000 0000 000000
2018-08-18 11:53:20,0.01,9.01,0.00,28.09,31.55,34.51,13.92,54.52,1021.50,2003.00,1260.00,1569.85,1705.00,600.30,589.14,42.39,0000 0000 0000 0000 000000
2018-08-18 11:58:22,0.01,9.01,0.00,27.99,31.55,34.54,13.82,54.51,1021.51,2003.00,1260.00,1569.71,1704.99,599.95,588.88,42.44,0000 0000 0000 0000 000000
2018-08-18 12:03:23,-0.01,9.01,0.00,27.91,31.55,34.57,13.87,54.42,1021.51,2003.00,1260.00,1569.69,1704.98,599.81,588.95,42.49,0000 0000 0000 0000 000000
2018-08-18 12:08:24,0.00,9.01,0.00,27.85,31.55,34.57,13.85,54.37,1021.50,2002.99,1259.98,1569.72,1704.96,600.03,589.29,42.54,0000 0000 0000 0000 000000
2018-08-18 12:13:26,0.01,9.01,0.00,27.79,31.54,34.53,13.90,54.36,1021.52,2002.99,1259.97,1569.60,1704.96,599.99,589.47,42.59,0000 0000 0000 0000 000000
2018-08-18 12:18:27,0.01,9.01,0.00,27.74,31.52,34.52,13.87,54.34,1021.51,2002.99,1259.91,1569.52,1704.95,599.65,589.14,42.64,0000 0000 0000 0000 000000
2018-08-18 12:23:29,0.01,9.01,0.00,27.71,31.52,34.51,13.90,54.37,1021.51,2002.99,1259.77,1569.60,1704.96,599.93,589.35,42.69,0000 0000 0000 0000 000000
2018-08-18 12:28:30,0.03,9.01,0.00,27.68,31.50,34.47,13.87,54.34,1021.51,2002.99,1259.50,1569.56,1704.96,599.92,589.59,42.74,0000 0000 0000 0000 000000
2018-08-18 12:33:31,0.02,9.01,0.00,27.65,31.50,34.46,13.91,54.50,1021.51,2002.99,1259.19,1569.50,1704.97,599.95,589.64,42.79,0000 0000 0000 0000 000000
2018-08-18 12:38:32,-0.01,9.01,0.00,27.62,31.47,34.42,13.89,54.63,1021.51,2002.99,1259.10,1569.67,1704.98,600.19,589.90,42.84,0000 0000 0000 0000 000000
2018-08-18 12:43:33,0.02,9.01,0.00,27.60,31.46,34.41,13.98,54.53,1021.50,2002.99,1259.03,1569.60,1704.97,600.13,589.87,42.89,0000 0000 0000 0000 000000
2018-08-18 12:48:35,-0.01,9.01,0.00,27.56,31.45,34.38,13.90,54.63,1021.51,2002.99,1259.02,1569.81,1704.97,600.18,590.05,42.94,0000 0000 0000 0000 000000
2018-08-18 12:53:36,-0.00,9.01,0.00,27.55,31.42,34.38,13.91,54.73,1021.52,2003.01,1259.03,1569.90,1704.98,600.11,589.99,42.99,0000 0000 0000 0000 000000